ONEWEB-0381 (49307 NORAD) Tracking and Keplerian Element Data

This shows tracking and keplerian element data for the satellite.

Feedback or suggestion? Click here.




ElementValue
Catalog49307
NameONEWEB-0381
Epoch Orbit354
Epoch Day339.91667824
Epoch Year2021
RAAN275.0146
Inclination87.2078
Eccentricity0.001005
Argument of Perigee89.6782
Mean Anonmoly199.5336
Mean Motion14.9098982
Decay Rate-0.00052994
L11 49307U 21090AE 21339.91667824 -.00052994 00000+0 -54096-2 0 9992
L22 49307 87.2078 275.0146 0010050 89.6782 199.5336 14.90989820 3546

Live tracking and technical data element details for ONEWEB-0381 (NORAD 49307). ONEWEB-0381 can be tracked NOW for your location showing map with azimuth and elevation plus other details from your city location.

Track the satellite on the map from your city or location and see movement details for azimuth, elevation, latitude, longitude, range, height, and movement on the map or in text.







IsCatalogInMostPopularTable: catalog: 49307, numindb: 8
Update: records affected: 1



GetName: 49307 ONEWEB-0381

Hit Count: updated at: Mon, 06 Dec 2021 15:04:58 GMT